Location: Unspecified
(40.9447°N, 78.9903°W)
Time: 10:25:02
(UTC-04:00)

Resurs 1-4 Rocket - Pass Details

Date: 03 August 2021
Orbit: 799 x 814 km, 98.6° (Epoch: 27 September)

Event Time Altitude Azimuth Distance (km) Brightness Sun altitude
Rises 04:13:36 0° 357° (N) 3,337 6.0 -19.4°
Reaches altitude 10° 04:16:38 10° 340° (NNW) 2,398 4.9 -19.0°
Maximum altitude 04:20:06 18° 298° (WNW) 1,887 3.9 -18.6°
Enters shadow 04:21:36 16° 278° (W) 1,987 3.8 -18.4°
